Location: Chèvreville
(49.1099°N, 2.8495°E)
Time: 23:11:40
(UTC+00:00)

Cosmos 1726 Rocket - Pass Details

Date: 28 January 2023
Orbit: 602 x 627 km, 82.5° (Epoch: 01 April)

Event Time Altitude Azimuth Distance (km) Brightness Sun altitude
Rises 19:01:56 0° 350° (N) 2,873 7.1 -23.4°
Reaches altitude 10° 19:04:10 10° 350° (N) 1,962 6.2 -23.8°
Enters shadow 19:07:39 57° 353° (N) 716 3.8 -24.3°
